C/2024 B1 ( Lemmon )

Japanese version
Home page
Updated on May 3, 2025

---------------------------------------------------------------------

* Profile

Discovery Date January 16, 2024
Magnitude 20.6 mag
Discoverer Mt. Lemmon Survey

* Pictures

* Orbital Elements

Epoch 2025 May 5.0 TT = JDT 2460800.5
T 2024 Oct. 7.71511 TT                                  Pike
q   1.6337833            (2000.0)            P               Q
z  -0.0006130      Peri.   66.21549     -0.21841438     -0.30125316
 +/-0.0000018      Node    79.18834     +0.07101276     -0.95354216
e   1.0010015      Incl.   70.90312     +0.97326890     +0.00196825
From 244 observations 2023 Oct. 13-2025 Feb. 26, mean residual 0".7.

* Finding Charts

* Magnitudes Graph

        m1 = 8.5 + 5 log d + 16.0 log r  [ ,0]  (             - 2024 Oct.  7)
        m1 = 9.2 + 5 log d + 13.0 log r  [0, ]  (2024 Oct.  7 -             )

---------------------------------------------------------------------

The orbital elements are published on M.P.E.C. 2025-D254.
The charts are made with StellaNavigator Ver.11 (AstroArts).
The magnitudes graphs are made with Comet for Windows.

---------------------------------------------------------------------

Copyright(C) Seiichi Yoshida (comet@aerith.net). All rights reserved.